CW9825 Weather Reports


Display with metric or nautical units.
time (UTC)temp
F
wind
direction
speed
MPH
gust
MPH
rain 1hr
in
rain 24hr
in
rain mn
in
humidity
%
barometer
mb
20260504234516 47 323 11.0 21.0 0.00 0.00 0.00 44 1004.6
20260504234017 47 329 11.0 24.0 0.00 0.00 0.00 44 1004.4
20260504233515 47 333 9.0 24.0 0.00 0.00 0.00 45 1004.5
20260504233020 47 346 15.0 24.0 0.00 0.00 0.00 44 1004.4
20260504232515 48 323 12.0 23.0 0.00 0.00 0.00 44 1004.5
20260504232016 48 302 8.0 21.0 0.00 0.00 0.00 44 1004.4
20260504231613 48 306 11.0 22.0 0.00 0.00 0.00 44 1004.3
20260504231014 48 324 11.0 27.0 0.00 0.00 0.00 44 1004.3
20260504230513 48 329 15.0 27.0 0.00 0.00 0.00 44 1004.1
20260504230016 48 310 13.0 27.0 0.00 0.00 0.00 43 1004.2
20260504225512 48 279 14.0 25.0 0.00 0.00 0.00 44 1004.2
20260504225011 48 261 12.0 25.0 0.00 0.00 0.00 44 1004.2
20260504224514 48 275 10.0 27.0 0.00 0.00 0.00 45 1004.1
20260504224014 48 323 11.0 27.0 0.00 0.00 0.00 45 1004.0
20260504223512 48 309 14.0 25.0 0.00 0.00 0.00 45 1004.0
20260504223009 48 338 15.0 31.0 0.00 0.00 0.00 45 1003.9
20260504222510 48 315 15.0 31.0 0.00 0.00 0.00 46 1003.9
20260504222008 48 292 5.0 26.0 0.00 0.00 0.00 47 1003.8
20260504221508 49 344 12.0 24.0 0.00 0.00 0.00 46 1003.8
20260504221008 48 270 11.0 23.0 0.00 0.00 0.00 47 1003.7
20260504220508 49 230 11.0 25.0 0.00 0.00 0.00 46 1003.7
20260504220015 48 265 15.0 25.0 0.00 0.00 0.00 47 1003.4
20260504215507 48 350 13.0 25.0 0.00 0.00 0.00 48 1003.6
20260504215007 48 329 12.0 26.0 0.00 0.00 0.00 47 1003.6
20260504214509 48 325 13.0 26.0 0.00 0.00 0.00 47 1003.5
20260504214010 48 328 13.0 24.0 0.00 0.00 0.00 48 1003.3
20260504213506 49 12 11.0 22.0 0.00 0.00 0.00 51 1003.4
20260504213009 48 319 11.0 29.0 0.00 0.00 0.00 50 1003.4
20260504212508 48 338 6.0 21.0 0.00 0.00 0.00 52 1003.4
20260504212004 48 299 10.0 23.0 0.00 0.00 0.00 53 1003.4
20260504211504 48 321 13.0 23.0 0.00 0.00 0.00 53 1003.4
20260504211004 48 339 12.0 21.0 0.00 0.00 0.00 52 1003.5
20260504210503 48 317 7.0 31.0 0.00 0.00 0.00 52 1003.3
20260504210004 48 306 15.0 31.0 0.00 0.00 0.00 51 1003.2
20260504205503 48 300 10.0 22.0 0.00 0.00 0.00 52 1003.3
20260504205005 48 288 14.0 23.0 0.00 0.00 0.00 52 1003.3
20260504204502 48 344 9.0 25.0 0.00 0.00 0.00 52 1003.3
20260504204002 47 279 11.0 25.0 0.00 0.00 0.00 51 1003.3
20260504203503 48 340 10.0 22.0 0.00 0.00 0.00 50 1003.3
20260504203005 48 355 10.0 21.0 0.00 0.00 0.00 49 1003.3
20260504202504 49 304 8.0 20.0 0.00 0.00 0.00 49 1003.3
20260504202002 48 355 7.0 19.0 0.00 0.00 0.00 49 1003.3
20260504201501 48 265 9.0 22.0 0.00 0.00 0.00 48 1003.2
20260504201003 48 5 12.0 23.0 0.00 0.00 0.00 48 1003.3
20260504200501 48 66 8.0 23.0 0.00 0.00 0.00 47 1003.1
20260504195600 48 325 8.0 21.0 0.00 0.00 0.00 48 1003.2
20260504195502 48 345 8.0 21.0 0.00 0.00 0.00 47 1003.1
20260504195101 48 267 5.0 21.0 0.00 0.00 0.00 47 1003.2
20260504194610 48 320 11.0 21.0 0.00 0.00 0.00 47 1003.2
20260504194100 48 318 10.0 18.0 0.00 0.00 0.00 50 1003.2
20260504193559 47 294 11.0 22.0 0.00 0.00 0.00 50 1003.3
20260504193059 47 310 13.0 24.0 0.00 0.00 0.00 50 1003.3
20260504192600 47 339 8.0 24.0 0.00 0.00 0.00 51 1003.3
20260504192058 47 288 9.0 20.0 0.00 0.00 0.00 51 1003.3
20260504191559 46 310 12.0 20.0 0.00 0.00 0.00 52 1003.3
20260504191057 46 295 9.0 21.0 0.00 0.00 0.00 53 1003.2
20260504190557 46 282 10.0 21.0 0.00 0.00 0.00 52 1003.3
20260504190156 46 256 10.0 21.0 0.00 0.00 0.00 53 1003.2
20260504185556 46 341 11.0 23.0 0.00 0.00 0.00 53 1003.3
20260504185055 46 321 14.0 33.0 0.00 0.00 0.00 54 1003.2
20260504184558 46 323 18.0 32.0 0.00 0.00 0.00 54 1003.0
20260504184058 46 323 12.0 25.0 0.00 0.00 0.00 55 1003.0
20260504183555 46 316 13.0 25.0 0.00 0.00 0.00 55 1003.0
20260504183054 46 283 14.0 20.0 0.00 0.00 0.00 53 1003.0
20260504182553 46 278 6.0 24.0 0.00 0.00 0.00 53 1002.8
20260504182052 46 350 14.0 24.0 0.00 0.00 0.00 54 1002.8
20260504181557 45 311 12.0 23.0 0.00 0.00 0.00 56 1002.7
20260504181052 45 277 9.0 22.0 0.00 0.00 0.00 57 1002.8
20260504180143 45 281 13.0 28.0 0.00 0.00 0.00 55 1002.6
20260504175551 45 298 15.0 31.0 0.00 0.00 0.00 57 1002.7
20260504175059 46 298 12.0 31.0 0.00 0.00 0.00 59 1002.7
20260504174551 45 324 19.0 30.0 0.00 0.00 0.00 58 1002.4
20260504174054 46 284 15.0 29.0 0.00 0.00 0.00 60 1002.4
20260504173549 46 331 15.0 28.0 0.00 0.00 0.00 59 1002.5
20260504173058 46 340 13.0 25.0 0.00 0.00 0.00 54 1002.3
20260504172547 46 323 12.0 25.0 0.00 0.00 0.00 53 1002.2
20260504172047 46 288 11.0 22.0 0.00 0.00 0.00 54 1002.1
20260504171547 46 331 9.0 17.0 0.00 0.00 0.00 57 1002.1
20260504171047 45 51 7.0 20.0 0.00 0.00 0.00 57 1002.2
20260504170550 45 265 6.0 23.0 0.00 0.00 0.00 57 1002.2
20260504151035 46 339 13.0 25.0 0.00 0.00 0.00 60 1000.5
20260504150535 46 328 10.0 22.0 0.00 0.00 0.00 60 1000.6
20260504150135 46 288 14.0 24.0 0.00 0.00 0.00 60 1000.5
20260504141031 45 280 12.0 26.0 0.00 0.00 0.00 69 1000.1
20260504140528 45 304 14.0 26.0 0.00 0.00 0.00 68 1000.1
20260504130519 44 264 10.0 21.0 0.00 0.00 0.00 71 999.3
20260504110557 47 257 10.0 29.0 0.00 0.00 0.00 65 997.0
20260504100542 50 267 3.0 11.0 0.00 0.00 0.00 69 995.7
20260504081530 51 325 8.0 19.0 0.00 0.00 0.00 66 995.4
20260504081033 51 347 8.0 21.0 0.00 0.00 0.00 65 995.4
20260504080528 51 331 13.0 24.0 0.00 0.00 0.00 65 995.6
20260504050551 64 216 11.0 25.0 0.00 0.00 0.00 42 992.4
20260504050117 64 200 11.0 21.0 0.00 0.00 0.00 42 992.5
20260504045548 64 168 9.0 22.0 0.00 0.00 0.00 42 992.7
20260504045048 64 177 11.0 23.0 0.00 0.00 0.00 42 992.8
20260504044548 63 193 8.0 23.0 0.00 0.00 0.00 42 992.8
20260504044047 63 230 13.0 23.0 0.00 0.00 0.00 42 992.9
20260504043546 63 213 9.0 23.0 0.00 0.00 0.00 42 993.0
20260504043046 63 198 10.0 20.0 0.00 0.00 0.00 42 993.1
20260504042544 63 207 11.0 21.0 0.00 0.00 0.00 42 993.2
20260504042044 63 178 15.0 21.0 0.00 0.00 0.00 42 993.2
20260504041546 63 214 12.0 19.0 0.00 0.00 0.00 42 993.3
20260504041043 63 250 12.0 22.0 0.00 0.00 0.00 41 993.6
20260504040542 63 203 12.0 23.0 0.00 0.00 0.00 41 993.8
20260504040042 63 213 11.0 21.0 0.00 0.00 0.00 41 993.9
20260504035541 63 188 14.0 23.0 0.00 0.00 0.00 41 994.1
20260504035040 63 204 9.0 23.0 0.00 0.00 0.00 41 994.2
20260504034548 63 224 10.0 21.0 0.00 0.00 0.00 41 994.3
20260504034040 64 215 10.0 18.0 0.00 0.00 0.00 40 994.6
20260504033638 64 195 9.0 15.0 0.00 0.00 0.00 40 994.6
20260504033036 64 190 9.0 20.0 0.00 0.00 0.00 40 994.7
20260504032536 64 232 10.0 20.0 0.00 0.00 0.00 40 994.9
20260504032038 64 205 10.0 18.0 0.00 0.00 0.00 40 995.0
20260504031545 64 210 11.0 18.0 0.00 0.00 0.00 40 995.1
20260504031033 64 217 9.0 20.0 0.00 0.00 0.00 40 995.2
20260504030532 64 194 8.0 16.0 0.00 0.00 0.00 40 995.3
20260504030039 64 193 10.0 20.0 0.00 0.00 0.00 40 995.4
20260504025535 64 194 9.0 20.0 0.00 0.00 0.00 40 995.5
20260504025032 64 184 10.0 22.0 0.00 0.00 0.00 40 995.6
20260504024530 64 219 10.0 22.0 0.00 0.00 0.00 39 995.6
20260504024031 65 213 9.0 20.0 0.00 0.00 0.00 39 995.7
20260504023529 65 198 10.0 19.0 0.00 0.00 0.00 39 995.9
20260504023028 65 198 10.0 16.0 0.00 0.00 0.00 38 995.9
20260504022529 65 169 9.0 18.0 0.00 0.00 0.00 38 996.0
20260504022027 65 198 7.0 19.0 0.00 0.00 0.00 38 996.0
20260504021526 66 194 10.0 18.0 0.00 0.00 0.00 37 996.1
20260504021025 66 209 10.0 16.0 0.00 0.00 0.00 37 996.2
20260504020525 66 202 10.0 20.0 0.00 0.00 0.00 36 996.2
20260504020028 67 192 12.0 20.0 0.00 0.00 0.00 36 996.3
20260504015525 67 176 10.0 18.0 0.00 0.00 0.00 35 996.4
20260504015024 67 200 10.0 18.0 0.00 0.00 0.00 35 996.5
20260504014524 67 213 8.0 16.0 0.00 0.00 0.00 34 996.6
20260504014022 68 200 8.0 15.0 0.00 0.00 0.00 34 996.8
20260504013521 68 213 10.0 15.0 0.00 0.00 0.00 34 996.9
20260504013020 68 213 8.0 16.0 0.00 0.00 0.00 33 997.0
20260504012522 69 208 9.0 16.0 0.00 0.00 0.00 33 997.2
20260504012019 69 154 8.0 12.0 0.00 0.00 0.00 33 997.3
20260504011518 69 242 7.0 16.0 0.00 0.00 0.00 32 997.4
20260504011016 70 225 6.0 16.0 0.00 0.00 0.00 32 997.5
20260504010516 70 188 6.0 12.0 0.00 0.00 0.00 32 997.5
20260504010015 70 144 5.0 14.0 0.00 0.00 0.00 31 997.8
20260504005514 70 190 4.0 14.0 0.00 0.00 0.00 31 997.9
20260504005014 71 182 5.0 10.0 0.00 0.00 0.00 30 998.0
20260504004514 71 238 3.0 10.0 0.00 0.00 0.00 30 998.1
20260504004015 71 237 1.0 14.0 0.00 0.00 0.00 30 998.2
20260504003511 71 137 4.0 14.0 0.00 0.00 0.00 30 998.4
20260504003011 71 168 3.0 11.0 0.00 0.00 0.00 29 998.5
20260504002509 71 225 4.0 11.0 0.00 0.00 0.00 29 998.6
20260504002009 71 227 6.0 12.0 0.00 0.00 0.00 29 998.7
20260504001510 72 271 3.0 16.0 0.00 0.00 0.00 29 998.8
20260504001007 72 228 8.0 16.0 0.00 0.00 0.00 29 998.8
20260504000510 72 259 5.0 11.0 0.00 0.00 0.00 29 999.0
20260504000007 72 63 3.0 15.0 0.00 0.00 0.00 29 999.0
20260503235505 72 279 6.0 14.0 0.00 0.00 0.00 29 999.2
20260503235005 72 260 5.0 14.0 0.00 0.00 0.00 29 999.3